| time (UTC) | temp F | wind direction | speed MPH | gust MPH | rain 1hr in | rain 24hr in | rain mn in | humidity % | barometer mb |
| 20260502225003 | 54 | 283 | 0.0 | 1.0 | 0.00 | 0.05 | 0.00 | 50 | 1011.4 |
| 20260502224003 | 54 | 287 | 1.0 | 3.0 | 0.00 | 0.05 | 0.00 | 48 | 1011.4 |
| 20260502223004 | 55 | 278 | 1.0 | 7.0 | 0.00 | 0.05 | 0.00 | 48 | 1011.4 |
| 20260502222003 | 55 | 275 | 2.0 | 6.0 | 0.00 | 0.05 | 0.00 | 48 | 1011.4 |
| 20260502221003 | 55 | 264 | 2.0 | 9.0 | 0.00 | 0.05 | 0.00 | 50 | 1011.4 |
| 20260502220003 | 56 | 251 | 2.0 | 13.0 | 0.00 | 0.05 | 0.00 | 46 | 1011.4 |
| 20260502215003 | 56 | 222 | 2.0 | 7.0 | 0.00 | 0.05 | 0.00 | 43 | 1011.4 |
| 20260502214003 | 57 | 202 | 2.0 | 7.0 | 0.00 | 0.05 | 0.00 | 43 | 1011.1 |
| 20260502213003 | 57 | 208 | 2.0 | 8.0 | 0.00 | 0.05 | 0.00 | 42 | 1010.7 |
| 20260502212004 | 58 | 244 | 3.0 | 15.0 | 0.00 | 0.05 | 0.00 | 41 | 1010.4 |
| 20260502211003 | 58 | 237 | 1.0 | 8.0 | 0.00 | 0.05 | 0.00 | 42 | 1010.4 |
| 20260502210003 | 58 | 220 | 0.0 | 1.0 | 0.00 | 0.05 | 0.00 | 45 | 1010.4 |
| 20260502205003 | 58 | 205 | 0.0 | 2.0 | 0.00 | 0.05 | 0.00 | 43 | 1010.1 |
| 20260502204004 | 58 | 81 | 0.0 | 2.0 | 0.00 | 0.05 | 0.00 | 44 | 1010.1 |
| 20260502203003 | 58 | 70 | 1.0 | 4.0 | 0.00 | 0.05 | 0.00 | 46 | 1010.1 |
| 20260502202003 | 58 | 169 | 1.0 | 8.0 | 0.00 | 0.05 | 0.00 | 43 | 1010.1 |
| 20260502201003 | 59 | 182 | 1.0 | 4.0 | 0.00 | 0.05 | 0.00 | 42 | 1009.7 |
| 20260502200004 | 59 | 150 | 2.0 | 4.0 | 0.00 | 0.05 | 0.00 | 42 | 1010.1 |
| 20260502195003 | 61 | 153 | 1.0 | 3.0 | 0.00 | 0.05 | 0.00 | 44 | 1010.1 |
| 20260502194003 | 61 | 174 | 2.0 | 7.0 | 0.00 | 0.06 | 0.00 | 40 | 1010.1 |
| 20260502193004 | 60 | 194 | 2.0 | 6.0 | 0.00 | 0.07 | 0.00 | 41 | 1009.7 |
| 20260502192003 | 61 | 147 | 1.0 | 6.0 | 0.00 | 0.08 | 0.00 | 41 | 1010.1 |
| 20260502191003 | 63 | 151 | 1.0 | 3.0 | 0.00 | 0.08 | 0.00 | 37 | 1009.7 |
| 20260502190004 | 63 | 187 | 2.0 | 8.0 | 0.00 | 0.09 | 0.00 | 30 | 1010.1 |
| 20260502185004 | 63 | 275 | 3.0 | 10.0 | 0.00 | 0.09 | 0.00 | 30 | 1010.1 |
| 20260502184003 | 62 | 296 | 3.0 | 8.0 | 0.00 | 0.10 | 0.00 | 30 | 1010.1 |
| 20260502183003 | 62 | 296 | 3.0 | 9.0 | 0.00 | 0.11 | 0.00 | 32 | 1010.1 |
| 20260502182004 | 62 | 266 | 2.0 | 7.0 | 0.00 | 0.11 | 0.00 | 31 | 1010.1 |
| 20260502181004 | 62 | 290 | 3.0 | 9.0 | 0.00 | 0.12 | 0.00 | 29 | 1010.4 |
| 20260502164003 | 59 | 305 | 2.0 | 7.0 | 0.00 | 0.16 | 0.00 | 36 | 1010.4 |
| 20260502163003 | 58 | 264 | 3.0 | 9.0 | 0.00 | 0.17 | 0.00 | 44 | 1010.4 |
| 20260502162004 | 58 | 283 | 2.0 | 8.0 | 0.00 | 0.17 | 0.00 | 37 | 1010.4 |
| 20260502161003 | 58 | 240 | 2.0 | 8.0 | 0.00 | 0.18 | 0.00 | 39 | 1010.4 |
| 20260502152003 | 55 | 280 | 3.0 | 6.0 | 0.00 | 0.20 | 0.00 | 47 | 1011.1 |
| 20260502151003 | 56 | 291 | 3.0 | 10.0 | 0.00 | 0.21 | 0.00 | 46 | 1011.1 |
| 20260502123003 | 48 | 284 | 2.0 | 6.0 | 0.00 | 0.45 | 0.00 | 73 | 1010.4 |
| 20260502122003 | 47 | 292 | 2.0 | 7.0 | 0.00 | 0.46 | 0.00 | 77 | 1010.4 |
| 20260502121005 | 47 | 286 | 3.0 | 7.0 | 0.00 | 0.46 | 0.00 | 77 | 1010.4 |
| 20260502115003 | 46 | 277 | 3.0 | 8.0 | 0.00 | 0.60 | 0.00 | 81 | 1010.1 |
| 20260502114003 | 46 | 283 | 3.0 | 6.0 | 0.00 | 0.62 | 0.00 | 82 | 1010.1 |
| 20260502113004 | 45 | 282 | 2.0 | 8.0 | 0.00 | 0.62 | 0.00 | 83 | 1009.7 |
| 20260502112003 | 45 | 257 | 2.0 | 8.0 | 0.00 | 0.62 | 0.00 | 85 | 1010.1 |
| 20260502111003 | 44 | 279 | 3.0 | 8.0 | 0.00 | 0.63 | 0.00 | 87 | 1009.7 |
| 20260502110004 | 44 | 253 | 2.0 | 7.0 | 0.00 | 0.63 | 0.00 | 89 | 1009.7 |
| 20260502105003 | 44 | 261 | 2.0 | 4.0 | 0.00 | 0.65 | 0.00 | 90 | 1009.4 |
| 20260502104004 | 43 | 263 | 1.0 | 4.0 | 0.00 | 0.65 | 0.00 | 92 | 1009.4 |
| 20260502103003 | 42 | 270 | 1.0 | 7.0 | 0.00 | 0.65 | 0.00 | 93 | 1009.4 |
| 20260502102003 | 41 | 272 | 1.0 | 4.0 | 0.00 | 0.65 | 0.00 | 95 | 1009.4 |
| 20260502101004 | 41 | 284 | 1.0 | 4.0 | 0.00 | 0.65 | 0.00 | 96 | 1008.7 |
| 20260502091003 | 40 | 264 | 1.0 | 6.0 | 0.00 | 0.75 | 0.00 | 98 | 1008.0 |
| 20260502071003 | 43 | 267 | 1.0 | 4.0 | 0.00 | 0.92 | 0.00 | 97 | 1006.6 |
| 20260502070003 | 43 | 285 | 0.0 | 2.0 | 0.00 | 0.92 | 0.00 | 97 | 1006.6 |
| 20260502065003 | 43 | 275 | 1.0 | 2.0 | 0.00 | 0.92 | 0.00 | 97 | 1006.6 |
| 20260502064003 | 43 | 279 | 1.0 | 4.0 | 0.00 | 0.92 | 0.00 | 97 | 1006.6 |
| 20260502063003 | 43 | 274 | 2.0 | 7.0 | 0.00 | 0.92 | 0.00 | 97 | 1006.3 |
| 20260502062003 | 43 | 278 | 2.0 | 8.0 | 0.00 | 0.92 | 0.00 | 97 | 1006.3 |
| 20260502061004 | 43 | 271 | 1.0 | 4.0 | 0.00 | 0.92 | 0.00 | 97 | 1006.0 |
| 20260502060004 | 43 | 273 | 2.0 | 6.0 | 0.00 | 0.92 | 0.00 | 97 | 1006.0 |
| 20260502055004 | 44 | 277 | 2.0 | 9.0 | 0.00 | 0.92 | 0.00 | 97 | 1006.0 |
| 20260502054003 | 44 | 283 | 2.0 | 7.0 | 0.00 | 0.92 | 0.00 | 97 | 1006.0 |
| 20260502053003 | 44 | 268 | 2.0 | 8.0 | 0.00 | 0.92 | 0.00 | 98 | 1005.6 |
| 20260502052003 | 44 | 270 | 2.0 | 7.0 | 0.00 | 0.92 | 0.00 | 98 | 1005.6 |
| 20260502051004 | 44 | 272 | 2.0 | 7.0 | 0.00 | 0.92 | 0.00 | 97 | 1005.6 |
| 20260502050003 | 44 | 275 | 3.0 | 7.0 | 0.00 | 0.92 | 0.00 | 97 | 1005.6 |
| 20260502045003 | 44 | 267 | 2.0 | 8.0 | 0.00 | 0.92 | 0.00 | 98 | 1005.3 |
| 20260502044004 | 45 | 273 | 2.0 | 6.0 | 0.00 | 0.92 | 0.00 | 98 | 1005.3 |
| 20260502043003 | 45 | 268 | 2.0 | 10.0 | 0.00 | 0.92 | 0.00 | 97 | 1005.3 |
| 20260502042003 | 45 | 264 | 3.0 | 8.0 | 0.00 | 0.92 | 0.00 | 97 | 1005.6 |
| 20260502041003 | 46 | 270 | 2.0 | 7.0 | 0.00 | 0.92 | 0.00 | 98 | 1005.3 |
| 20260502040004 | 46 | 223 | 1.0 | 7.0 | 0.00 | 0.92 | 0.00 | 98 | 1005.3 |
| 20260502035004 | 47 | 270 | 1.0 | 6.0 | 0.00 | 0.92 | 0.00 | 98 | 1005.3 |
| 20260502034003 | 47 | 252 | 1.0 | 6.0 | 0.00 | 0.92 | 0.00 | 98 | 1004.9 |
| 20260502033003 | 47 | 272 | 1.0 | 7.0 | 0.00 | 0.92 | 0.00 | 98 | 1004.9 |
| 20260502032003 | 47 | 268 | 1.0 | 6.0 | 0.00 | 0.93 | 0.00 | 98 | 1004.9 |
| 20260502031003 | 47 | 260 | 1.0 | 7.0 | 0.01 | 0.93 | 0.00 | 98 | 1004.6 |
| 20260502030004 | 48 | 268 | 2.0 | 8.0 | 0.01 | 0.93 | 0.00 | 98 | 1004.3 |
| 20260502025003 | 48 | 271 | 3.0 | 8.0 | 0.01 | 0.93 | 0.93 | 98 | 1004.6 |
| 20260502024004 | 48 | 269 | 2.0 | 10.0 | 0.01 | 0.93 | 0.93 | 99 | 1004.3 |
| 20260502023003 | 49 | 273 | 2.0 | 8.0 | 0.01 | 0.93 | 0.93 | 99 | 1004.3 |
| 20260502022003 | 49 | 249 | 2.0 | 7.0 | 0.02 | 0.93 | 0.93 | 99 | 1004.3 |
| 20260502021003 | 49 | 270 | 1.0 | 6.0 | 0.01 | 0.93 | 0.92 | 99 | 1003.6 |
| 20260502020004 | 49 | 266 | 2.0 | 8.0 | 0.01 | 0.93 | 0.92 | 99 | 1003.9 |
| 20260502015003 | 49 | 274 | 2.0 | 6.0 | 0.01 | 0.93 | 0.92 | 99 | 1003.9 |
| 20260502014003 | 50 | 265 | 1.0 | 4.0 | 0.03 | 0.93 | 0.92 | 99 | 1003.6 |
| 20260502013003 | 50 | 278 | 2.0 | 7.0 | 0.04 | 0.94 | 0.92 | 99 | 1003.9 |
| 20260502012003 | 50 | 266 | 2.0 | 6.0 | 0.03 | 0.93 | 0.91 | 99 | 1003.6 |
| 20260502011004 | 51 | 253 | 1.0 | 4.0 | 0.03 | 0.93 | 0.91 | 99 | 1003.6 |
| 20260502010003 | 51 | 252 | 1.0 | 6.0 | 0.03 | 0.93 | 0.91 | 99 | 1003.2 |
| 20260502005003 | 51 | 266 | 2.0 | 7.0 | 0.03 | 0.93 | 0.91 | 99 | 1003.2 |
| 20260502004004 | 51 | 247 | 1.0 | 7.0 | 0.01 | 0.91 | 0.89 | 99 | 1002.9 |
| 20260502003003 | 50 | 219 | 1.0 | 6.0 | 0.00 | 0.90 | 0.88 | 99 | 1002.9 |
| 20260502002003 | 48 | 169 | 0.0 | 2.0 | 0.00 | 0.90 | 0.88 | 99 | 1002.9 |
| 20260502001003 | 48 | 168 | 0.0 | 2.0 | 0.00 | 0.90 | 0.88 | 99 | 1002.6 |
| 20260502000004 | 48 | 162 | 0.0 | 1.0 | 0.00 | 0.90 | 0.88 | 99 | 1002.6 |
| 20260501235004 | 48 | 145 | 0.0 | 1.0 | 0.00 | 0.90 | 0.88 | 99 | 1002.2 |
| 20260501234004 | 48 | 187 | 0.0 | 2.0 | 0.00 | 0.90 | 0.88 | 99 | 1002.2 |
| 20260501233003 | 49 | 199 | 0.0 | 1.0 | 0.00 | 0.90 | 0.88 | 99 | 1002.2 |
| 20260501232003 | 49 | 201 | 0.0 | 1.0 | 0.00 | 0.90 | 0.88 | 99 | 1002.2 |
| 20260501231004 | 49 | 195 | 0.0 | 3.0 | 0.00 | 0.90 | 0.88 | 99 | 1001.9 |
| 20260501230004 | 49 | 179 | 0.0 | 2.0 | 0.00 | 0.90 | 0.88 | 99 | 1001.9 |